User: anonymous   Login
Location: ????????
(54.8751°N, 38.5756°E)
Time: 12:52:38
(UTC+00:00)
Language:

Cosmos 1536 - Orbit

View from above orbital plane
View from above orbital plane
View from above satellite
View from above satellite

Ground track
Ground track

The orbit data is extracted from the following two-line orbital elements,

1 14699U 84013A   24171.62541492  .00004245  00000-0  23939-3 0  9997
2 14699  82.5494   6.8896 0016984 314.8881  45.0970 15.12801815198455
Epoch (UTC): 19 June 2024 15:00:35
Eccentricity: 0.0016984
inclination: 82.5494°
perigee height: 516 km
apogee height: 539 km
right ascension of ascending node: 6.8896°
argument of perigee: 314.8881°
revolutions per day: 15.12801815
mean anomaly at epoch: 45.0970°
orbit number at epoch: 19845

The dashed part of the orbit path shows where the satellite is in the earth's shadow,  

DLR